Time,TemperatureF,DewpointF,PressureIn,WindDirection,WindDirectionDegrees,WindSpeedMPH,WindSpeedGustMPH,Humidity,HourlyPrecipIn,Conditions,Clouds,dailyrainin,SoftwareType,DateUTC
2013-05-19 00:01:00,60.8,48.7,30.00,NNW,337,2.0,6.0,64,0.00,,,0.00,WUHU216DAVISVP2,2013-05-19 04:01:00,
2013-05-19 00:06:00,60.5,48.8,30.00,NNW,337,1.0,6.0,65,0.00,,,0.00,WUHU216DAVISVP2,2013-05-19 04:06:00,
2013-05-19 00:11:00,60.2,48.4,30.00,NNW,337,0.0,6.0,65,0.00,,,0.00,WUHU216DAVISVP2,2013-05-19 04:11:00,
2013-05-19 00:16:00,60.0,48.6,30.00,NNW,337,4.0,6.0,66,0.00,,,0.00,WUHU216DAVISVP2,2013-05-19 04:16:00,
2013-05-19 00:21:00,59.7,48.9,30.00,NNW,332,6.0,7.0,67,0.00,,,0.00,WUHU216DAVISVP2,2013-05-19 04:21:00,
2013-05-19 00:26:00,59.3,48.9,30.00,NNW,333,4.0,7.0,68,0.00,,,0.00,WUHU216DAVISVP2,2013-05-19 04:26:00,
2013-05-19 00:31:00,58.9,48.9,30.00,NNW,332,4.0,7.0,69,0.00,,,0.00,WUHU216DAVISVP2,2013-05-19 04:31:00,
2013-05-19 00:36:00,58.9,48.9,30.00,NNW,345,6.0,7.0,69,0.00,,,0.00,WUHU216DAVISVP2,2013-05-19 04:36:00,
2013-05-19 00:41:00,58.8,48.8,30.00,NNW,338,5.0,8.0,69,0.00,,,0.00,WUHU216DAVISVP2,2013-05-19 04:41:00,
2013-05-19 00:46:00,58.6,48.6,30.00,NNW,338,6.0,8.0,69,0.00,,,0.00,WUHU216DAVISVP2,2013-05-19 04:46:00,
2013-05-19 00:51:00,58.5,48.5,30.00,NNW,347,2.0,8.0,69,0.00,,,0.00,WUHU216DAVISVP2,2013-05-19 04:51:00,
2013-05-19 00:56:00,58.3,48.6,30.00,NNW,339,2.0,8.0,70,0.00,,,0.00,WUHU216DAVISVP2,2013-05-19 04:56:00,
2013-05-19 01:02:00,58.2,48.6,30.00,NNW,341,2.0,7.0,70,0.00,,,0.00,WUHU216DAVISVP2,2013-05-19 05:02:00,
2013-05-19 01:07:00,57.9,48.7,29.99,NNW,346,5.0,7.0,71,0.00,,,0.00,WUHU216DAVISVP2,2013-05-19 05:07:00,
2013-05-19 01:12:00,57.7,48.5,29.99,North,355,5.0,7.0,71,0.00,,,0.00,WUHU216DAVISVP2,2013-05-19 05:12:00,
2013-05-19 01:17:00,57.7,48.5,29.99,North,355,4.0,7.0,71,0.00,,,0.00,WUHU216DAVISVP2,2013-05-19 05:17:00,
2013-05-19 01:22:00,57.5,48.2,29.99,NNW,339,5.0,7.0,71,0.00,,,0.00,WUHU216DAVISVP2,2013-05-19 05:22:00,
2013-05-19 01:27:00,57.5,48.7,29.99,NNW,342,2.0,8.0,72,0.00,,,0.00,WUHU216DAVISVP2,2013-05-19 05:27:00,
2013-05-19 01:32:00,57.3,48.1,29.99,NNW,342,4.0,8.0,71,0.00,,,0.00,WUHU216DAVISVP2,2013-05-19 05:32:00,
2013-05-19 01:37:00,57.2,48.4,29.98,NNW,343,5.0,8.0,72,0.00,,,0.00,WUHU216DAVISVP2,2013-05-19 05:37:00,
2013-05-19 01:42:00,57.1,48.3,29.98,NNW,348,0.0,6.0,72,0.00,,,0.00,WUHU216DAVISVP2,2013-05-19 05:42:00,
2013-05-19 01:47:00,57.0,48.2,29.98,NNW,348,0.0,6.0,72,0.00,,,0.00,WUHU216DAVISVP2,2013-05-19 05:47:00,
2013-05-19 01:52:00,56.9,48.4,29.98,NNW,348,0.0,6.0,73,0.00,,,0.00,WUHU216DAVISVP2,2013-05-19 05:52:00,
2013-05-19 01:57:00,56.8,48.3,29.98,NNW,348,1.0,5.0,73,0.00,,,0.00,WUHU216DAVISVP2,2013-05-19 05:57:00,
2013-05-19 02:02:00,56.7,48.1,29.98,North,351,2.0,4.0,73,0.00,,,0.00,WUHU216DAVISVP2,2013-05-19 06:02:00,
2013-05-19 02:07:00,56.7,48.1,29.98,North,355,2.0,6.0,73,0.00,,,0.00,WUHU216DAVISVP2,2013-05-19 06:07:00,
2013-05-19 02:12:00,56.7,48.2,29.97,North,5,0.0,6.0,73,0.00,,,0.00,WUHU216DAVISVP2,2013-05-19 06:12:00,
2013-05-19 02:17:00,56.6,48.2,29.97,North,355,4.0,7.0,73,0.00,,,0.00,WUHU216DAVISVP2,2013-05-19 06:17:00,
2013-05-19 02:22:00,56.6,48.2,29.97,North,355,0.0,7.0,73,0.00,,,0.00,WUHU216DAVISVP2,2013-05-19 06:22:00,
2013-05-19 02:28:00,56.5,48.1,29.96,North,355,0.0,7.0,73,0.00,,,0.00,WUHU216DAVISVP2,2013-05-19 06:28:00,
2013-05-19 02:33:00,56.5,47.9,29.97,North,355,4.0,7.0,73,0.00,,,0.00,WUHU216DAVISVP2,2013-05-19 06:33:00,
2013-05-19 02:38:00,56.4,47.9,29.97,North,351,2.0,5.0,73,0.00,,,0.00,WUHU216DAVISVP2,2013-05-19 06:38:00,
2013-05-19 02:43:00,56.4,48.0,29.97,North,5,2.0,5.0,73,0.00,,,0.00,WUHU216DAVISVP2,2013-05-19 06:43:00,
2013-05-19 02:48:00,56.3,47.9,29.96,NNW,342,5.0,6.0,73,0.00,,,0.00,WUHU216DAVISVP2,2013-05-19 06:48:00,
2013-05-19 02:53:00,56.3,47.9,29.96,NNW,346,3.0,6.0,73,0.00,,,0.00,WUHU216DAVISVP2,2013-05-19 06:53:00,
2013-05-19 02:58:00,56.3,48.1,29.96,NNE,22,0.0,6.0,74,0.00,,,0.00,WUHU216DAVISVP2,2013-05-19 06:58:00,
2013-05-19 03:03:00,56.2,48.0,29.96,NNW,341,0.0,6.0,74,0.00,,,0.00,WUHU216DAVISVP2,2013-05-19 07:03:00,
2013-05-19 03:08:00,56.1,48.0,29.96,North,350,2.0,6.0,74,0.00,,,0.00,WUHU216DAVISVP2,2013-05-19 07:08:00,
2013-05-19 03:13:00,56.2,48.1,29.96,NNW,348,2.0,6.0,74,0.00,,,0.00,WUHU216DAVISVP2,2013-05-19 07:13:00,
2013-05-19 03:18:00,56.1,48.4,29.96,NNW,348,0.0,6.0,75,0.00,,,0.00,WUHU216DAVISVP2,2013-05-19 07:18:00,
2013-05-19 03:23:00,56.1,48.4,29.96,NNW,339,2.0,6.0,75,0.00,,,0.00,WUHU216DAVISVP2,2013-05-19 07:23:00,
2013-05-19 03:28:00,56.1,48.4,29.96,NNW,339,0.0,6.0,75,0.00,,,0.00,WUHU216DAVISVP2,2013-05-19 07:28:00,
2013-05-19 03:33:00,56.1,48.4,29.96,NNW,339,0.0,6.0,75,0.00,,,0.00,WUHU216DAVISVP2,2013-05-19 07:33:00,
2013-05-19 03:38:00,56.0,48.3,29.96,NNW,339,0.0,6.0,75,0.00,,,0.00,WUHU216DAVISVP2,2013-05-19 07:38:00,
2013-05-19 03:43:00,55.9,48.5,29.96,NNW,339,0.0,4.0,76,0.00,,,0.00,WUHU216DAVISVP2,2013-05-19 07:43:00,
2013-05-19 03:49:00,55.7,48.3,29.96,NNW,339,1.0,3.0,76,0.00,,,0.00,WUHU216DAVISVP2,2013-05-19 07:49:00,
2013-05-19 03:54:00,55.7,48.3,29.97,NNW,339,3.0,4.0,76,0.00,,,0.00,WUHU216DAVISVP2,2013-05-19 07:54:00,
2013-05-19 03:59:00,55.5,48.5,29.97,NNW,339,0.0,4.0,77,0.00,,,0.00,WUHU216DAVISVP2,2013-05-19 07:59:00,
2013-05-19 04:04:00,55.5,48.5,29.97,NNW,339,2.0,4.0,77,0.00,,,0.00,WUHU216DAVISVP2,2013-05-19 08:04:00,
2013-05-19 04:09:00,55.4,48.4,29.96,NNW,339,5.0,5.0,77,0.00,,,0.00,WUHU216DAVISVP2,2013-05-19 08:09:00,
2013-05-19 04:14:00,55.3,48.3,29.97,NNW,339,4.0,5.0,77,0.00,,,0.00,WUHU216DAVISVP2,2013-05-19 08:14:00,
2013-05-19 04:19:00,55.3,48.6,29.97,NNW,339,1.0,5.0,78,0.00,,,0.00,WUHU216DAVISVP2,2013-05-19 08:19:00,
2013-05-19 04:24:00,55.3,48.6,29.98,NNW,339,1.0,5.0,78,0.00,,,0.00,WUHU216DAVISVP2,2013-05-19 08:24:00,
2013-05-19 04:29:00,55.1,48.8,29.98,NNW,339,2.0,5.0,79,0.00,,,0.00,WUHU216DAVISVP2,2013-05-19 08:29:00,
2013-05-19 04:34:00,55.0,48.7,29.97,NNW,339,1.0,5.0,79,0.00,,,0.00,WUHU216DAVISVP2,2013-05-19 08:34:00,
2013-05-19 04:39:00,55.0,48.7,29.97,NNW,339,4.0,4.0,79,0.00,,,0.00,WUHU216DAVISVP2,2013-05-19 08:39:00,
2013-05-19 04:44:00,55.1,48.8,29.97,NNW,339,2.0,5.0,79,0.00,,,0.00,WUHU216DAVISVP2,2013-05-19 08:44:00,
2013-05-19 04:49:00,55.0,48.7,29.97,NNW,339,2.0,5.0,79,0.00,,,0.00,WUHU216DAVISVP2,2013-05-19 08:49:00,
2013-05-19 04:54:00,55.0,48.7,29.98,NNW,339,0.0,5.0,79,0.00,,,0.00,WUHU216DAVISVP2,2013-05-19 08:54:00,
2013-05-19 04:59:00,55.0,48.6,29.98,NNW,339,0.0,5.0,79,0.00,,,0.00,WUHU216DAVISVP2,2013-05-19 08:59:00,
2013-05-19 05:04:00,55.0,48.6,29.98,NNW,339,0.0,4.0,79,0.00,,,0.00,WUHU216DAVISVP2,2013-05-19 09:04:00,
2013-05-19 05:10:00,54.9,48.8,29.97,NNW,339,0.0,4.0,80,0.00,,,0.00,WUHU216DAVISVP2,2013-05-19 09:10:00,
2013-05-19 05:15:00,54.8,48.8,29.97,NNW,339,0.0,4.0,80,0.00,,,0.00,WUHU216DAVISVP2,2013-05-19 09:15:00,
2013-05-19 05:20:00,54.9,48.9,29.97,NNW,339,1.0,2.0,80,0.00,,,0.00,WUHU216DAVISVP2,2013-05-19 09:20:00,
2013-05-19 05:25:00,54.9,48.9,29.97,NNW,339,2.0,4.0,80,0.00,,,0.00,WUHU216DAVISVP2,2013-05-19 09:25:00,
2013-05-19 05:30:00,54.9,48.9,29.97,NNW,339,2.0,4.0,80,0.00,,,0.00,WUHU216DAVISVP2,2013-05-19 09:30:00,
2013-05-19 05:35:00,54.9,48.9,29.97,NNW,339,0.0,5.0,80,0.00,,,0.00,WUHU216DAVISVP2,2013-05-19 09:35:00,
2013-05-19 05:40:00,54.9,48.8,29.98,NNW,339,0.0,5.0,80,0.00,,,0.00,WUHU216DAVISVP2,2013-05-19 09:40:00,
2013-05-19 05:45:00,54.7,48.6,29.97,NNW,339,0.0,5.0,80,0.00,,,0.00,WUHU216DAVISVP2,2013-05-19 09:45:00,
2013-05-19 05:50:00,54.5,48.8,29.97,NNW,339,0.0,5.0,81,0.00,,,0.00,WUHU216DAVISVP2,2013-05-19 09:50:00,
2013-05-19 05:55:00,54.5,48.8,29.97,NNW,340,1.0,4.0,81,0.00,,,0.00,WUHU216DAVISVP2,2013-05-19 09:55:00,
2013-05-19 06:00:00,54.5,48.8,29.97,NNE,22,0.0,5.0,81,0.00,,,0.00,WUHU216DAVISVP2,2013-05-19 10:00:00,
2013-05-19 06:05:00,54.5,48.8,29.97,NNE,22,0.0,5.0,81,0.00,,,0.00,WUHU216DAVISVP2,2013-05-19 10:05:00,
2013-05-19 06:10:00,54.5,48.8,29.97,NNE,17,2.0,5.0,81,0.00,,,0.00,WUHU216DAVISVP2,2013-05-19 10:10:00,
2013-05-19 06:15:00,54.5,49.1,29.97,North,5,0.0,5.0,82,0.00,,,0.00,WUHU216DAVISVP2,2013-05-19 10:15:00,
2013-05-19 06:20:00,54.6,49.2,29.97,North,360,0.0,5.0,82,0.00,,,0.00,WUHU216DAVISVP2,2013-05-19 10:20:00,
2013-05-19 06:25:00,54.6,49.2,29.98,North,360,1.0,5.0,82,0.00,,,0.00,WUHU216DAVISVP2,2013-05-19 10:25:00,
2013-05-19 06:31:00,54.6,49.2,29.98,North,360,1.0,5.0,82,0.00,,,0.00,WUHU216DAVISVP2,2013-05-19 10:31:00,
2013-05-19 06:36:00,54.6,49.2,29.98,North,349,4.0,5.0,82,0.00,,,0.00,WUHU216DAVISVP2,2013-05-19 10:36:00,
2013-05-19 06:41:00,54.5,49.1,29.98,North,349,4.0,5.0,82,0.00,,,0.00,WUHU216DAVISVP2,2013-05-19 10:41:00,
2013-05-19 06:46:00,54.5,49.1,29.98,North,349,0.0,5.0,82,0.00,,,0.00,WUHU216DAVISVP2,2013-05-19 10:46:00,
2013-05-19 06:51:00,54.6,49.2,29.98,North,349,1.0,5.0,82,0.00,,,0.00,WUHU216DAVISVP2,2013-05-19 10:51:00,
2013-05-19 06:56:00,54.8,49.4,29.98,North,349,2.0,5.0,82,0.00,,,0.00,WUHU216DAVISVP2,2013-05-19 10:56:00,
2013-05-19 07:01:00,55.0,49.3,29.98,North,349,2.0,5.0,81,0.00,,,0.00,WUHU216DAVISVP2,2013-05-19 11:01:00,
2013-05-19 07:06:00,55.3,49.6,29.98,North,349,1.0,5.0,81,0.00,,,0.00,WUHU216DAVISVP2,2013-05-19 11:06:00,
2013-05-19 07:11:00,55.6,49.9,29.98,North,355,2.0,6.0,81,0.00,,,0.00,WUHU216DAVISVP2,2013-05-19 11:11:00,
2013-05-19 07:16:00,55.7,50.0,29.98,North,355,0.0,6.0,81,0.00,,,0.00,WUHU216DAVISVP2,2013-05-19 11:16:00,
2013-05-19 07:21:00,55.9,50.2,29.98,North,355,0.0,6.0,81,0.00,,,0.00,WUHU216DAVISVP2,2013-05-19 11:21:00,
2013-05-19 07:26:00,56.1,50.4,29.98,North,355,0.0,6.0,81,0.00,,,0.00,WUHU216DAVISVP2,2013-05-19 11:26:00,
2013-05-19 07:31:00,56.3,50.6,29.98,North,355,1.0,4.0,81,0.00,,,0.00,WUHU216DAVISVP2,2013-05-19 11:31:00,
2013-05-19 07:36:00,56.4,50.7,29.98,North,355,0.0,7.0,81,0.00,,,0.00,WUHU216DAVISVP2,2013-05-19 11:36:00,
2013-05-19 07:41:00,56.5,50.8,29.98,North,355,0.0,7.0,81,0.00,,,0.00,WUHU216DAVISVP2,2013-05-19 11:41:00,
2013-05-19 07:46:00,56.6,50.9,29.99,NNW,345,4.0,7.0,81,0.00,,,0.00,WUHU216DAVISVP2,2013-05-19 11:46:00,
2013-05-19 07:52:00,56.8,50.7,29.98,NNW,338,4.0,7.0,80,0.00,,,0.00,WUHU216DAVISVP2,2013-05-19 11:52:00,
2013-05-19 07:57:00,57.2,51.1,29.98,North,5,4.0,7.0,80,0.00,,,0.00,WUHU216DAVISVP2,2013-05-19 11:57:00,
2013-05-19 08:02:00,57.6,51.2,29.98,NE,37,2.0,7.0,79,0.00,,,0.00,WUHU216DAVISVP2,2013-05-19 12:02:00,
2013-05-19 08:07:00,58.1,51.6,29.98,ENE,68,5.0,8.0,79,0.00,,,0.00,WUHU216DAVISVP2,2013-05-19 12:07:00,
2013-05-19 08:12:00,58.6,52.1,29.97,North,360,1.0,8.0,79,0.00,,,0.00,WUHU216DAVISVP2,2013-05-19 12:12:00,
2013-05-19 08:17:00,59.3,52.4,29.98,East,98,1.0,8.0,78,0.00,,,0.00,WUHU216DAVISVP2,2013-05-19 12:17:00,
2013-05-19 08:22:00,59.9,53.0,29.98,East,84,2.0,8.0,78,0.00,,,0.00,WUHU216DAVISVP2,2013-05-19 12:22:00,
2013-05-19 08:27:00,60.5,53.3,29.98,East,98,0.0,8.0,77,0.00,,,0.00,WUHU216DAVISVP2,2013-05-19 12:27:00,
2013-05-19 08:32:00,60.9,53.3,29.98,ESE,106,0.0,9.0,76,0.00,,,0.00,WUHU216DAVISVP2,2013-05-19 12:32:00,
2013-05-19 08:37:00,61.5,53.5,29.98,East,82,0.0,9.0,75,0.00,,,0.00,WUHU216DAVISVP2,2013-05-19 12:37:00,
2013-05-19 08:42:00,62.0,54.0,29.98,NNE,26,4.0,9.0,75,0.00,,,0.00,WUHU216DAVISVP2,2013-05-19 12:42:00,
2013-05-19 08:47:00,62.5,54.1,29.98,NE,47,2.0,9.0,74,0.00,,,0.00,WUHU216DAVISVP2,2013-05-19 12:47:00,
2013-05-19 08:52:00,62.8,54.1,29.98,East,96,2.0,8.0,73,0.00,,,0.00,WUHU216DAVISVP2,2013-05-19 12:52:00,
2013-05-19 08:57:00,63.0,54.3,29.98,East,87,6.0,9.0,73,0.00,,,0.00,WUHU216DAVISVP2,2013-05-19 12:57:00,
2013-05-19 09:02:00,63.2,55.3,29.98,East,96,6.0,9.0,75,0.00,,,0.00,WUHU216DAVISVP2,2013-05-19 13:02:00,
2013-05-19 09:07:00,63.6,54.9,29.99,NNE,19,2.0,9.0,73,0.00,,,0.00,WUHU216DAVISVP2,2013-05-19 13:07:00,
2013-05-19 09:13:00,64.0,55.3,29.99,NNE,21,5.0,9.0,73,0.00,,,0.00,WUHU216DAVISVP2,2013-05-19 13:13:00,
2013-05-19 09:18:00,64.4,55.3,29.99,SE,126,3.0,8.0,72,0.00,,,0.00,WUHU216DAVISVP2,2013-05-19 13:18:00,
2013-05-19 09:23:00,64.9,55.8,29.99,NE,53,0.0,7.0,72,0.00,,,0.00,WUHU216DAVISVP2,2013-05-19 13:23:00,
2013-05-19 09:28:00,65.7,56.9,29.99,East,98,4.0,6.0,73,0.00,,,0.00,WUHU216DAVISVP2,2013-05-19 13:28:00,
2013-05-19 09:33:00,66.1,57.3,29.99,ESE,115,1.0,6.0,73,0.00,,,0.00,WUHU216DAVISVP2,2013-05-19 13:33:00,
2013-05-19 09:38:00,66.6,57.3,29.99,SE,133,0.0,6.0,72,0.00,,,0.00,WUHU216DAVISVP2,2013-05-19 13:38:00,
2013-05-19 09:43:00,67.3,58.0,29.99,East,101,0.0,6.0,72,0.00,,,0.00,WUHU216DAVISVP2,2013-05-19 13:43:00,
2013-05-19 09:48:00,68.1,58.5,29.99,ESE,102,0.0,6.0,71,0.00,,,0.00,WUHU216DAVISVP2,2013-05-19 13:48:00,
2013-05-19 09:53:00,68.5,58.5,29.99,SE,124,0.0,6.0,70,0.00,,,0.00,WUHU216DAVISVP2,2013-05-19 13:53:00,
2013-05-19 09:58:00,69.2,59.2,29.99,East,81,0.0,6.0,70,0.00,,,0.00,WUHU216DAVISVP2,2013-05-19 13:58:00,
2013-05-19 10:03:00,70.1,59.6,29.99,East,94,3.0,6.0,69,0.00,,,0.00,WUHU216DAVISVP2,2013-05-19 14:03:00,
2013-05-19 10:08:00,70.4,60.1,29.98,ESE,102,0.0,5.0,70,0.00,,,0.00,WUHU216DAVISVP2,2013-05-19 14:08:00,
2013-05-19 10:13:00,70.7,60.0,29.98,East,100,0.0,6.0,69,0.00,,,0.00,WUHU216DAVISVP2,2013-05-19 14:13:00,
2013-05-19 10:18:00,70.9,60.4,29.98,ENE,78,1.0,6.0,69,0.00,,,0.00,WUHU216DAVISVP2,2013-05-19 14:18:00,
2013-05-19 10:23:00,71.2,61.1,29.98,ENE,72,3.0,6.0,70,0.00,,,0.00,WUHU216DAVISVP2,2013-05-19 14:23:00,
2013-05-19 10:28:00,71.1,61.4,29.98,North,11,0.0,7.0,71,0.00,,,0.00,WUHU216DAVISVP2,2013-05-19 14:28:00,
2013-05-19 10:34:00,71.3,61.8,29.97,ESE,103,1.0,7.0,72,0.00,,,0.00,WUHU216DAVISVP2,2013-05-19 14:34:00,
2013-05-19 10:39:00,72.0,61.5,29.97,ESE,113,2.0,7.0,69,0.00,,,0.00,WUHU216DAVISVP2,2013-05-19 14:39:00,
2013-05-19 10:44:00,72.4,61.4,29.97,East,81,2.0,8.0,68,0.00,,,0.00,WUHU216DAVISVP2,2013-05-19 14:44:00,
2013-05-19 10:49:00,72.6,61.4,29.97,East,90,3.0,8.0,68,0.00,,,0.00,WUHU216DAVISVP2,2013-05-19 14:49:00,
2013-05-19 10:54:00,73.1,62.5,29.97,SE,142,5.0,8.0,69,0.00,,,0.00,WUHU216DAVISVP2,2013-05-19 14:54:00,
2013-05-19 10:59:00,73.7,63.1,29.96,ESE,114,2.0,8.0,69,0.00,,,0.00,WUHU216DAVISVP2,2013-05-19 14:59:00,
2013-05-19 11:04:00,74.2,63.2,29.96,SE,135,3.0,9.0,68,0.00,,,0.00,WUHU216DAVISVP2,2013-05-19 15:04:00,
2013-05-19 11:09:00,74.3,62.8,29.97,ESE,116,0.0,9.0,67,0.00,,,0.00,WUHU216DAVISVP2,2013-05-19 15:09:00,
2013-05-19 11:14:00,74.9,63.4,29.96,ESE,111,6.0,9.0,67,0.00,,,0.00,WUHU216DAVISVP2,2013-05-19 15:14:00,
2013-05-19 11:19:00,74.9,63.0,29.96,SE,142,2.0,9.0,66,0.00,,,0.00,WUHU216DAVISVP2,2013-05-19 15:19:00,
2013-05-19 11:24:00,75.3,63.4,29.96,SE,146,0.0,9.0,66,0.00,,,0.00,WUHU216DAVISVP2,2013-05-19 15:24:00,
2013-05-19 11:29:00,75.6,64.1,29.96,East,82,5.0,9.0,67,0.00,,,0.00,WUHU216DAVISVP2,2013-05-19 15:29:00,
2013-05-19 11:34:00,75.5,63.6,29.96,ESE,115,2.0,9.0,66,0.00,,,0.00,WUHU216DAVISVP2,2013-05-19 15:34:00,
2013-05-19 11:39:00,75.9,63.9,29.96,ENE,78,6.0,9.0,66,0.00,,,0.00,WUHU216DAVISVP2,2013-05-19 15:39:00,
2013-05-19 11:44:00,76.2,64.0,29.96,SE,145,6.0,9.0,66,0.00,,,0.00,WUHU216DAVISVP2,2013-05-19 15:44:00,
2013-05-19 11:49:00,76.7,63.8,29.96,SE,124,1.0,8.0,64,0.00,,,0.00,WUHU216DAVISVP2,2013-05-19 15:49:00,
2013-05-19 11:55:00,77.2,64.1,29.96,East,96,6.0,8.0,64,0.00,,,0.00,WUHU216DAVISVP2,2013-05-19 15:55:00,
2013-05-19 12:00:00,77.4,64.5,29.96,SE,131,2.0,8.0,64,0.00,,,0.00,WUHU216DAVISVP2,2013-05-19 16:00:00,
2013-05-19 12:05:00,78.1,64.7,29.96,SSW,192,6.0,8.0,63,0.00,,,0.00,WUHU216DAVISVP2,2013-05-19 16:05:00,
2013-05-19 12:10:00,78.0,63.7,29.96,South,176,7.0,9.0,61,0.00,,,0.00,WUHU216DAVISVP2,2013-05-19 16:10:00,
2013-05-19 12:15:00,78.0,64.2,29.96,ENE,78,4.0,9.0,62,0.00,,,0.00,WUHU216DAVISVP2,2013-05-19 16:15:00,
2013-05-19 12:20:00,78.5,64.2,29.97,ESE,110,2.0,9.0,61,0.00,,,0.00,WUHU216DAVISVP2,2013-05-19 16:20:00,
2013-05-19 12:25:00,78.7,64.1,29.96,East,90,2.0,9.0,61,0.00,,,0.00,WUHU216DAVISVP2,2013-05-19 16:25:00,
2013-05-19 12:30:00,78.6,63.8,29.96,North,5,4.0,9.0,60,0.00,,,0.00,WUHU216DAVISVP2,2013-05-19 16:30:00,
2013-05-19 12:35:00,78.3,64.0,29.96,SE,133,10.0,10.0,61,0.00,,,0.00,WUHU216DAVISVP2,2013-05-19 16:35:00,
2013-05-19 12:40:00,78.5,64.2,29.96,SE,133,2.0,12.0,61,0.00,,,0.00,WUHU216DAVISVP2,2013-05-19 16:40:00,
2013-05-19 12:45:00,79.3,64.4,29.96,SSE,158,1.0,12.0,60,0.00,,,0.00,WUHU216DAVISVP2,2013-05-19 16:45:00,
2013-05-19 12:50:00,79.6,64.2,29.95,South,188,0.0,12.0,59,0.00,,,0.00,WUHU216DAVISVP2,2013-05-19 16:50:00,
2013-05-19 12:55:00,79.2,63.6,29.95,East,94,3.0,12.0,59,0.00,,,0.00,WUHU216DAVISVP2,2013-05-19 16:55:00,
2013-05-19 13:01:00,79.2,64.3,29.95,East,101,3.0,9.0,60,0.00,,,0.00,WUHU216DAVISVP2,2013-05-19 17:01:00,
2013-05-19 13:06:00,79.9,64.5,29.95,East,92,2.0,9.0,59,0.00,,,0.00,WUHU216DAVISVP2,2013-05-19 17:06:00,
2013-05-19 13:11:00,80.3,64.7,29.95,South,175,1.0,9.0,59,0.00,,,0.00,WUHU216DAVISVP2,2013-05-19 17:11:00,
2013-05-19 13:16:00,80.6,64.2,29.94,SE,132,4.0,9.0,57,0.00,,,0.00,WUHU216DAVISVP2,2013-05-19 17:16:00,
2013-05-19 13:21:00,80.4,64.0,29.94,East,80,7.0,9.0,57,0.00,,,0.00,WUHU216DAVISVP2,2013-05-19 17:21:00,
2013-05-19 13:26:00,80.0,64.6,29.94,East,97,5.0,10.0,59,0.00,,,0.00,WUHU216DAVISVP2,2013-05-19 17:26:00,
2013-05-19 13:31:00,80.3,63.7,29.94,East,99,0.0,10.0,57,0.00,,,0.00,WUHU216DAVISVP2,2013-05-19 17:31:00,
2013-05-19 13:36:00,81.1,64.6,29.94,SE,132,2.0,10.0,57,0.00,,,0.00,WUHU216DAVISVP2,2013-05-19 17:36:00,
2013-05-19 13:41:00,81.0,63.3,29.94,SSW,208,6.0,9.0,55,0.00,,,0.00,WUHU216DAVISVP2,2013-05-19 17:41:00,
2013-05-19 13:46:00,80.7,63.2,29.93,ENE,61,7.0,11.0,55,0.00,,,0.00,WUHU216DAVISVP2,2013-05-19 17:46:00,
2013-05-19 13:51:00,80.5,63.6,29.93,SSE,162,3.0,11.0,56,0.00,,,0.00,WUHU216DAVISVP2,2013-05-19 17:51:00,
2013-05-19 13:56:00,80.7,63.2,29.93,SSW,205,0.0,11.0,55,0.00,,,0.00,WUHU216DAVISVP2,2013-05-19 17:56:00,
2013-05-19 14:01:00,80.8,63.1,29.93,NE,53,0.0,11.0,55,0.00,,,0.00,WUHU216DAVISVP2,2013-05-19 18:01:00,
2013-05-19 14:06:00,80.9,63.4,29.92,ESE,122,0.0,11.0,55,0.00,,,0.00,WUHU216DAVISVP2,2013-05-19 18:06:00,
2013-05-19 14:11:00,81.2,64.2,29.92,East,96,6.0,11.0,56,0.00,,,0.00,WUHU216DAVISVP2,2013-05-19 18:11:00,
2013-05-19 14:16:00,81.6,63.5,29.92,ESE,109,2.0,11.0,54,0.00,,,0.00,WUHU216DAVISVP2,2013-05-19 18:16:00,
2013-05-19 14:22:00,81.8,63.2,29.91,South,175,0.0,8.0,53,0.00,,,0.00,WUHU216DAVISVP2,2013-05-19 18:22:00,
2013-05-19 14:27:00,82.1,62.7,29.91,East,88,5.0,8.0,52,0.00,,,0.00,WUHU216DAVISVP2,2013-05-19 18:27:00,
2013-05-19 14:32:00,81.3,62.7,29.91,ENE,77,6.0,8.0,53,0.00,,,0.00,WUHU216DAVISVP2,2013-05-19 18:32:00,
2013-05-19 14:37:00,80.9,62.9,29.91,NNE,26,0.0,8.0,54,0.00,,,0.00,WUHU216DAVISVP2,2013-05-19 18:37:00,
2013-05-19 14:42:00,81.2,63.2,29.90,South,173,10.0,10.0,54,0.00,,,0.00,WUHU216DAVISVP2,2013-05-19 18:42:00,
2013-05-19 14:47:00,82.0,62.8,29.90,SE,141,0.0,11.0,52,0.00,,,0.00,WUHU216DAVISVP2,2013-05-19 18:47:00,
2013-05-19 14:52:00,83.1,63.2,29.90,ESE,120,4.0,11.0,51,0.00,,,0.00,WUHU216DAVISVP2,2013-05-19 18:52:00,
2013-05-19 14:57:00,83.6,63.0,29.90,SE,134,1.0,11.0,50,0.00,,,0.00,WUHU216DAVISVP2,2013-05-19 18:57:00,
2013-05-19 15:02:00,83.8,63.9,29.89,ESE,115,4.0,11.0,51,0.00,,,0.00,WUHU216DAVISVP2,2013-05-19 19:02:00,
2013-05-19 15:07:00,83.4,62.4,29.89,East,101,6.0,10.0,49,0.00,,,0.00,WUHU216DAVISVP2,2013-05-19 19:07:00,
2013-05-19 15:12:00,82.9,62.5,29.89,South,175,0.0,10.0,50,0.00,,,0.00,WUHU216DAVISVP2,2013-05-19 19:12:00,
2013-05-19 15:17:00,83.7,63.2,29.89,ESE,120,2.0,10.0,50,0.00,,,0.00,WUHU216DAVISVP2,2013-05-19 19:17:00,
2013-05-19 15:22:00,83.9,62.7,29.89,South,188,7.0,10.0,49,0.00,,,0.00,WUHU216DAVISVP2,2013-05-19 19:22:00,
2013-05-19 15:27:00,83.7,63.1,29.89,SSW,203,6.0,11.0,50,0.00,,,0.00,WUHU216DAVISVP2,2013-05-19 19:27:00,
2013-05-19 15:32:00,83.7,62.6,29.89,SSW,200,2.0,11.0,49,0.00,,,0.00,WUHU216DAVISVP2,2013-05-19 19:32:00,
2013-05-19 15:37:00,83.5,63.0,29.88,SSE,165,3.0,11.0,50,0.00,,,0.00,WUHU216DAVISVP2,2013-05-19 19:37:00,
2013-05-19 15:43:00,83.1,62.7,29.88,SE,146,0.0,11.0,50,0.00,,,0.00,WUHU216DAVISVP2,2013-05-19 19:43:00,
2013-05-19 15:48:00,83.1,63.2,29.87,South,180,0.0,8.0,51,0.00,,,0.00,WUHU216DAVISVP2,2013-05-19 19:48:00,
2013-05-19 15:53:00,82.9,62.5,29.87,East,95,0.0,8.0,50,0.00,,,0.00,WUHU216DAVISVP2,2013-05-19 19:53:00,
2013-05-19 15:58:00,83.1,63.2,29.86,South,180,2.0,8.0,51,0.00,,,0.00,WUHU216DAVISVP2,2013-05-19 19:58:00,
2013-05-19 16:03:00,83.4,62.8,29.86,SE,134,0.0,8.0,50,0.00,,,0.00,WUHU216DAVISVP2,2013-05-19 20:03:00,
2013-05-19 16:08:00,83.9,63.8,29.86,ESE,111,1.0,9.0,51,0.00,,,0.00,WUHU216DAVISVP2,2013-05-19 20:08:00,
2013-05-19 16:13:00,84.3,63.8,29.86,SE,126,7.0,9.0,50,0.00,,,0.00,WUHU216DAVISVP2,2013-05-19 20:13:00,
2013-05-19 16:18:00,84.1,63.6,29.86,East,97,2.0,10.0,50,0.00,,,0.00,WUHU216DAVISVP2,2013-05-19 20:18:00,
2013-05-19 16:23:00,84.1,62.9,29.86,East,92,4.0,11.0,49,0.00,,,0.00,WUHU216DAVISVP2,2013-05-19 20:23:00,
2013-05-19 16:28:00,83.6,63.0,29.85,ENE,66,3.0,11.0,50,0.00,,,0.00,WUHU216DAVISVP2,2013-05-19 20:28:00,
2013-05-19 16:33:00,83.6,63.1,29.85,East,98,1.0,11.0,50,0.00,,,0.00,WUHU216DAVISVP2,2013-05-19 20:33:00,
2013-05-19 16:38:00,83.8,63.9,29.85,ESE,111,1.0,11.0,51,0.00,,,0.00,WUHU216DAVISVP2,2013-05-19 20:38:00,
2013-05-19 16:43:00,84.3,64.4,29.85,East,80,0.0,9.0,51,0.00,,,0.00,WUHU216DAVISVP2,2013-05-19 20:43:00,
2013-05-19 16:48:00,84.3,62.6,29.85,ENE,65,5.0,10.0,48,0.00,,,0.00,WUHU216DAVISVP2,2013-05-19 20:48:00,
2013-05-19 16:53:00,84.3,63.2,29.85,SE,124,6.0,10.0,49,0.00,,,0.00,WUHU216DAVISVP2,2013-05-19 20:53:00,
2013-05-19 16:58:00,84.3,63.2,29.85,ENE,78,11.0,11.0,49,0.00,,,0.00,WUHU216DAVISVP2,2013-05-19 20:58:00,
2013-05-19 17:03:00,84.1,63.6,29.85,East,86,8.0,12.0,50,0.00,,,0.00,WUHU216DAVISVP2,2013-05-19 21:03:00,
2013-05-19 17:09:00,84.1,62.4,29.85,East,96,4.0,13.0,48,0.00,,,0.00,WUHU216DAVISVP2,2013-05-19 21:09:00,
2013-05-19 17:14:00,84.3,62.6,29.84,NE,43,6.0,13.0,48,0.00,,,0.00,WUHU216DAVISVP2,2013-05-19 21:14:00,
2013-05-19 17:19:00,84.5,63.4,29.84,NE,46,7.0,13.0,49,0.00,,,0.00,WUHU216DAVISVP2,2013-05-19 21:19:00,
2013-05-19 17:24:00,84.5,63.4,29.84,East,98,7.0,13.0,49,0.00,,,0.00,WUHU216DAVISVP2,2013-05-19 21:24:00,
2013-05-19 17:29:00,84.4,62.6,29.84,East,79,5.0,11.0,48,0.00,,,0.00,WUHU216DAVISVP2,2013-05-19 21:29:00,
2013-05-19 17:34:00,84.2,63.0,29.84,East,83,8.0,11.0,49,0.00,,,0.00,WUHU216DAVISVP2,2013-05-19 21:34:00,
2013-05-19 17:39:00,84.3,62.5,29.84,ESE,103,4.0,11.0,48,0.00,,,0.00,WUHU216DAVISVP2,2013-05-19 21:39:00,
2013-05-19 17:44:00,84.4,62.6,29.85,South,177,5.0,10.0,48,0.00,,,0.00,WUHU216DAVISVP2,2013-05-19 21:44:00,
2013-05-19 17:49:00,84.2,61.8,29.86,ESE,111,1.0,10.0,47,0.00,,,0.00,WUHU216DAVISVP2,2013-05-19 21:49:00,
2013-05-19 17:54:00,83.9,62.2,29.85,ESE,112,1.0,10.0,48,0.00,,,0.00,WUHU216DAVISVP2,2013-05-19 21:54:00,
2013-05-19 17:59:00,83.9,62.8,29.85,SSE,164,0.0,10.0,49,0.00,,,0.00,WUHU216DAVISVP2,2013-05-19 21:59:00,
2013-05-19 18:04:00,84.5,62.8,29.85,South,178,7.0,9.0,48,0.00,,,0.00,WUHU216DAVISVP2,2013-05-19 22:04:00,
2013-05-19 18:09:00,84.8,63.0,29.85,SE,137,5.0,9.0,48,0.00,,,0.00,WUHU216DAVISVP2,2013-05-19 22:09:00,
2013-05-19 18:14:00,84.9,63.1,29.85,East,92,6.0,9.0,48,0.00,,,0.00,WUHU216DAVISVP2,2013-05-19 22:14:00,
2013-05-19 18:19:00,84.3,63.8,29.85,East,79,0.0,9.0,50,0.00,,,0.00,WUHU216DAVISVP2,2013-05-19 22:19:00,
2013-05-19 18:24:00,84.1,63.6,29.85,SSE,152,1.0,9.0,50,0.00,,,0.00,WUHU216DAVISVP2,2013-05-19 22:24:00,
2013-05-19 18:29:00,83.9,63.4,29.85,SSE,148,1.0,8.0,50,0.00,,,0.00,WUHU216DAVISVP2,2013-05-19 22:29:00,
2013-05-19 18:35:00,83.8,62.7,29.85,SE,129,2.0,8.0,49,0.00,,,0.00,WUHU216DAVISVP2,2013-05-19 22:35:00,
2013-05-19 18:40:00,83.8,63.3,29.84,East,96,1.0,9.0,50,0.00,,,0.00,WUHU216DAVISVP2,2013-05-19 22:40:00,
2013-05-19 18:45:00,83.7,62.6,29.84,East,96,11.0,11.0,49,0.00,,,0.00,WUHU216DAVISVP2,2013-05-19 22:45:00,
2013-05-19 18:50:00,83.6,62.5,29.84,East,90,9.0,11.0,49,0.00,,,0.00,WUHU216DAVISVP2,2013-05-19 22:50:00,
2013-05-19 18:55:00,83.5,63.0,29.84,ESE,103,2.0,12.0,50,0.00,,,0.00,WUHU216DAVISVP2,2013-05-19 22:55:00,
2013-05-19 19:00:00,83.6,63.1,29.84,SE,140,2.0,12.0,50,0.00,,,0.00,WUHU216DAVISVP2,2013-05-19 23:00:00,
2013-05-19 19:06:00,83.9,63.4,29.84,ESE,120,6.0,12.0,50,0.00,,,0.00,WUHU216DAVISVP2,2013-05-19 23:06:00,
2013-05-19 19:11:00,83.7,62.6,29.84,East,90,1.0,11.0,49,0.00,,,0.00,WUHU216DAVISVP2,2013-05-19 23:11:00,
2013-05-19 19:16:00,83.4,62.9,29.84,ENE,78,4.0,7.0,50,0.00,,,0.00,WUHU216DAVISVP2,2013-05-19 23:16:00,
2013-05-19 19:21:00,83.3,62.9,29.85,SE,140,5.0,8.0,50,0.00,,,0.00,WUHU216DAVISVP2,2013-05-19 23:21:00,
2013-05-19 19:26:00,83.2,62.8,29.84,ESE,120,0.0,8.0,50,0.00,,,0.00,WUHU216DAVISVP2,2013-05-19 23:26:00,
2013-05-19 19:31:00,83.2,62.8,29.85,East,98,4.0,8.0,50,0.00,,,0.00,WUHU216DAVISVP2,2013-05-19 23:31:00,
2013-05-19 19:36:00,83.1,62.7,29.85,ENE,78,5.0,8.0,50,0.00,,,0.00,WUHU216DAVISVP2,2013-05-19 23:36:00,
2013-05-19 19:41:00,82.9,63.6,29.84,ENE,71,2.0,8.0,52,0.00,,,0.00,WUHU216DAVISVP2,2013-05-19 23:41:00,
2013-05-19 19:46:00,82.6,62.2,29.84,East,92,5.0,9.0,50,0.00,,,0.00,WUHU216DAVISVP2,2013-05-19 23:46:00,
2013-05-19 19:51:00,82.6,62.2,29.84,East,88,4.0,9.0,50,0.00,,,0.00,WUHU216DAVISVP2,2013-05-19 23:51:00,
2013-05-19 19:56:00,82.5,62.7,29.83,ENE,73,2.0,9.0,51,0.00,,,0.00,WUHU216DAVISVP2,2013-05-19 23:56:00,
2013-05-19 20:01:00,82.4,62.5,29.84,East,90,2.0,9.0,51,0.00,,,0.00,WUHU216DAVISVP2,2013-05-20 00:01:00,
2013-05-19 20:06:00,82.3,62.4,29.84,East,89,2.0,9.0,51,0.00,,,0.00,WUHU216DAVISVP2,2013-05-20 00:06:00,
2013-05-19 20:11:00,82.1,62.2,29.84,East,101,5.0,8.0,51,0.00,,,0.00,WUHU216DAVISVP2,2013-05-20 00:11:00,
2013-05-19 20:16:00,81.9,62.5,29.83,ENE,71,4.0,7.0,52,0.00,,,0.00,WUHU216DAVISVP2,2013-05-20 00:16:00,
2013-05-19 20:22:00,81.7,62.4,29.84,East,89,1.0,7.0,52,0.00,,,0.00,WUHU216DAVISVP2,2013-05-20 00:22:00,
2013-05-19 20:27:00,81.6,62.8,29.84,East,88,0.0,7.0,53,0.00,,,0.00,WUHU216DAVISVP2,2013-05-20 00:27:00,
2013-05-19 20:32:00,81.1,62.9,29.84,East,96,2.0,7.0,54,0.00,,,0.00,WUHU216DAVISVP2,2013-05-20 00:32:00,
2013-05-19 20:37:00,80.6,62.6,29.83,East,89,1.0,5.0,54,0.00,,,0.00,WUHU216DAVISVP2,2013-05-20 00:37:00,
2013-05-19 20:42:00,80.2,62.2,29.83,ENE,78,0.0,5.0,54,0.00,,,0.00,WUHU216DAVISVP2,2013-05-20 00:42:00,
2013-05-19 20:47:00,79.9,62.5,29.84,SE,126,0.0,5.0,55,0.00,,,0.00,WUHU216DAVISVP2,2013-05-20 00:47:00,
2013-05-19 20:52:00,79.5,62.1,29.84,East,88,0.0,5.0,55,0.00,,,0.00,WUHU216DAVISVP2,2013-05-20 00:52:00,
2013-05-19 20:57:00,79.1,62.3,29.84,ESE,111,1.0,5.0,56,0.00,,,0.00,WUHU216DAVISVP2,2013-05-20 00:57:00,
2013-05-19 21:02:00,78.7,62.4,29.84,ESE,110,0.0,5.0,57,0.00,,,0.00,WUHU216DAVISVP2,2013-05-20 01:02:00,
2013-05-19 21:07:00,78.5,62.2,29.84,ESE,110,0.0,5.0,57,0.00,,,0.00,WUHU216DAVISVP2,2013-05-20 01:07:00,
2013-05-19 21:12:00,78.2,62.4,29.84,ESE,110,0.0,2.0,58,0.00,,,0.00,WUHU216DAVISVP2,2013-05-20 01:12:00,
2013-05-19 21:17:00,77.6,61.9,29.84,ESE,110,0.0,2.0,58,0.00,,,0.00,WUHU216DAVISVP2,2013-05-20 01:17:00,
2013-05-19 21:22:00,77.3,62.6,29.83,ESE,110,2.0,2.0,60,0.00,,,0.00,WUHU216DAVISVP2,2013-05-20 01:22:00,
2013-05-19 21:27:00,77.2,62.0,29.84,East,84,0.0,4.0,59,0.00,,,0.00,WUHU216DAVISVP2,2013-05-20 01:27:00,
2013-05-19 21:32:00,77.3,61.9,29.83,NE,55,0.0,4.0,59,0.00,,,0.00,WUHU216DAVISVP2,2013-05-20 01:32:00,
2013-05-19 21:37:00,77.2,61.8,29.84,East,80,0.0,7.0,59,0.00,,,0.00,WUHU216DAVISVP2,2013-05-20 01:37:00,
2013-05-19 21:43:00,77.1,62.8,29.84,East,86,4.0,7.0,61,0.00,,,0.00,WUHU216DAVISVP2,2013-05-20 01:43:00,
2013-05-19 21:48:00,76.8,63.5,29.84,East,90,3.0,8.0,63,0.00,,,0.00,WUHU216DAVISVP2,2013-05-20 01:48:00,
2013-05-19 21:53:00,76.6,63.7,29.84,ENE,76,6.0,8.0,64,0.00,,,0.00,WUHU216DAVISVP2,2013-05-20 01:53:00,
2013-05-19 21:58:00,76.4,63.8,29.85,East,97,5.0,8.0,65,0.00,,,0.00,WUHU216DAVISVP2,2013-05-20 01:58:00,
2013-05-19 22:03:00,76.0,63.4,29.85,East,89,1.0,8.0,65,0.00,,,0.00,WUHU216DAVISVP2,2013-05-20 02:03:00,
2013-05-19 22:08:00,75.6,63.7,29.85,ENE,76,0.0,8.0,66,0.00,,,0.00,WUHU216DAVISVP2,2013-05-20 02:08:00,
2013-05-19 22:13:00,75.3,63.4,29.85,East,88,0.0,6.0,66,0.00,,,0.00,WUHU216DAVISVP2,2013-05-20 02:13:00,
2013-05-19 22:18:00,75.1,63.6,29.85,East,88,0.0,6.0,67,0.00,,,0.00,WUHU216DAVISVP2,2013-05-20 02:18:00,
2013-05-19 22:23:00,74.7,63.2,29.86,East,88,0.0,6.0,67,0.00,,,0.00,WUHU216DAVISVP2,2013-05-20 02:23:00,
2013-05-19 22:28:00,74.2,63.2,29.86,East,88,0.0,5.0,68,0.00,,,0.00,WUHU216DAVISVP2,2013-05-20 02:28:00,
2013-05-19 22:33:00,73.6,63.4,29.86,East,88,0.0,1.0,70,0.00,,,0.00,WUHU216DAVISVP2,2013-05-20 02:33:00,
2013-05-19 22:38:00,72.9,63.1,29.85,East,88,1.0,2.0,71,0.00,,,0.00,WUHU216DAVISVP2,2013-05-20 02:38:00,
2013-05-19 22:43:00,72.6,62.8,29.86,East,88,0.0,2.0,71,0.00,,,0.00,WUHU216DAVISVP2,2013-05-20 02:43:00,
2013-05-19 22:48:00,72.6,62.4,29.85,East,92,2.0,4.0,70,0.00,,,0.00,WUHU216DAVISVP2,2013-05-20 02:48:00,
2013-05-19 22:53:00,72.8,62.6,29.86,East,101,0.0,4.0,70,0.00,,,0.00,WUHU216DAVISVP2,2013-05-20 02:53:00,
2013-05-19 22:58:00,72.9,62.5,29.86,East,101,0.0,4.0,70,0.00,,,0.00,WUHU216DAVISVP2,2013-05-20 02:58:00,
2013-05-19 23:04:00,72.8,62.8,29.86,East,101,0.0,4.0,71,0.00,,,0.00,WUHU216DAVISVP2,2013-05-20 03:04:00,
2013-05-19 23:09:00,72.8,62.6,29.87,East,101,0.0,4.0,70,0.00,,,0.00,WUHU216DAVISVP2,2013-05-20 03:09:00,
2013-05-19 23:14:00,72.9,63.1,29.87,East,101,0.0,1.0,71,0.00,,,0.00,WUHU216DAVISVP2,2013-05-20 03:14:00,
2013-05-19 23:19:00,72.8,63.0,29.87,East,101,0.0,1.0,71,0.00,,,0.00,WUHU216DAVISVP2,2013-05-20 03:19:00,
2013-05-19 23:24:00,72.5,63.1,29.87,East,101,0.0,1.0,72,0.00,,,0.00,WUHU216DAVISVP2,2013-05-20 03:24:00,
2013-05-19 23:29:00,72.3,62.9,29.87,ESE,102,0.0,3.0,72,0.00,,,0.00,WUHU216DAVISVP2,2013-05-20 03:29:00,
2013-05-19 23:34:00,72.2,63.2,29.87,ESE,102,0.0,4.0,73,0.00,,,0.00,WUHU216DAVISVP2,2013-05-20 03:34:00,
2013-05-19 23:39:00,71.9,63.3,29.87,ESE,118,0.0,4.0,74,0.00,,,0.00,WUHU216DAVISVP2,2013-05-20 03:39:00,
2013-05-19 23:44:00,72.0,63.4,29.87,ESE,119,0.0,4.0,74,0.00,,,0.00,WUHU216DAVISVP2,2013-05-20 03:44:00,
2013-05-19 23:49:00,72.0,63.3,29.87,ESE,119,1.0,4.0,74,0.00,,,0.00,WUHU216DAVISVP2,2013-05-20 03:49:00,
2013-05-19 23:54:00,71.9,63.2,29.87,ESE,119,0.0,4.0,74,0.00,,,0.00,WUHU216DAVISVP2,2013-05-20 03:54:00,
2013-05-19 23:59:00,71.9,63.3,29.87,ESE,114,0.0,2.0,74,0.00,,,0.00,WUHU216DAVISVP2,2013-05-20 03:59:00,